Temp
17 17 17 17 16 17 17 16 16 16 16 16 15 15 15 15 14 14 14 14 14 14 14 13 13 13 13 13 12 12 12 11 11 11 11 11 11 11 11 12 12 12
16 17 17 16 16 16 16 16 16 16 15 15 15 15 15 15 15 15 15 14 14 14 13 13 13 13 12 12 12 11 11 11 11 11 11 11 11 11 11 11 11 12
16 16 16 16 16 16 16 16 15 15 15 15 15 15 15 15 14 14 14 14 14 13 13 13 12 12 12 12 11 11 11 11 11 11 11 11 11 11 11 11 11 11
16 16 16 16 16 16 16 16 15 15 15 15 15 14 14 14 14 14 14 14 13 13 13 12 12 12 12 11 11 11 11 11 11 11 11 11 11 11 11 11 11 11
16 16 16 16 16 16 16 15 15 15 15 14 14 14 14 14 14 14 13 13 13 12 12 12 12 11 11 11 11 11 11 11 11 11 11 11 11 11 11 11 11 11
16 16 16 16 16 16 15 15 15 15 15 14 14 14 14 14 13 13 13 13 12 12 12 12 11 11 11 11 11 11 11 11 11 11 11 11 11 11 11 11 11 11
16 16 16 16 16 15 15 15 15 15 14 14 14 14 14 13 13 13 12 12 12 12 11 11 11 11 11 11 11 11 11 11 11 11 11 10 10 10 11 11 11 11
16 16 16 16 15 15 15 15 15 14 14 14 14 13 13 13 13 12 12 12 12 11 11 11 11 11 11 11 11 11 11 11 10 10 10 10 10 10 10 10 10 10
16 16 16 15 15 15 15 14 14 14 14 14 13 13 13 13 12 12 12 12 11 11 11 11 11 11 11 11 11 11 11 10 10 10 10 10 10 10 10 10 10 10
16 16 16 15 15 15 14 14 14 14 13 13 13 13 13 12 12 12 12 11 11 11 11 11 11 11 10 10 10 10 10 10 10 10 10 10 10 10 10 10 10 10
16 16 15 15 15 14 14 14 14 14 13 13 13 13 12 12 12 12 11 11 11 11 11 11 10 10 10 10 10 9 9 9 9 9 9 9 9 9 9 9 10 10
15 15 15 15 14 14 14 14 14 13 13 13 13 12 12 12 12 11 11 11 11 11 11 10 10 10 10 10 9 9 9 9 9 8 8 8 8 8 8 9 9 9
15 15 15 15 14 14 14 13 13 13 13 13 12 12 12 12 12 11 11 11 11 11 10 10 10 10 10 9 9 9 9 9 9 8 8 8 7 7 7 8 8 8
15 15 15 14 14 14 13 13 13 13 13 12 12 12 12 12 11 11 11 11 11 10 10 10 10 9 9 9 9 9 9 8 8 8 7 7 7 7 7 7 7 7
15 14 14 14 14 13 13 13 13 13 12 12 12 12 12 12 11 11 11 11 11 10 10 10 9 9 9 9 9 8 8 8 7 7 7 6 6 6 6 6 6 6
14 14 14 14 13 13 13 13 13 13 12 12 12 12 12 11 11 11 11 11 10 10 9 9 9 9 9 9 8 8 7 7 7 6 6 6 6 6 5 6 6 6
14 13 13 13 13 13 13 13 13 12 12 12 12 12 11 11 11 11 11 10 10 9 9 9 9 8 8 8 8 7 7 6 6 6 6 5 5 5 5 5 5 5
13 13 13 13 13 13 13 13 12 12 12 12 12 12 11 11 11 10 10 9 9 9 8 8 8 8 7 7 7 6 6 6 5 5 5 5 5 5 5 5 5 5
13 13 13 13 13 13 13 13 12 12 12 12 12 11 11 11 10 10 9 9 8 8 7 7 7 7 6 6 6 5 5 5 5 5 5 5 5 4 4 4 4 4
13 13 13 13 13 13 13 13 13 12 12 12 11 11 10 10 9 9 8 8 7 7 6 6 6 5 5 5 5 5 5 5 4 4 4 4 4 4 4 4 4 4
13 13 13 13 13 13 13 13 12 12 11 11 10 10 10 9 8 8 7 7 6 6 5 5 5 5 5 4 4 4 4 4 4 4 4 4 4 4 4 4 4 4
13 13 13 13 13 13 12 12 11 11 10 10 10 9 9 8 8 7 7 6 6 6 5 5 5 5 4 4 4 4 4 3 3 3 3 3 3 3 3 3 3 3
12 12 12 12 12 12 11 11 10 10 10 9 9 9 8 8 7 7 7 7 6 6 5 5 5 5 4 4 4 3 3 3 3 3 3 3 2 2 2 2 2 2
12 12 12 12 11 11 10 10 10 10 9 9 9 8 8 7 7 7 7 7 7 6 5 5 5 4 4 3 3 3 3 3 3 3 2 2 2 2 1 1 1 1
11 11 11 11 11 10 10 10 10 9 9 9 9 9 8 8 7 7 7 7 6 6 5 5 4 4 3 3 3 2 2 2 2 2 2 1 1 1 1 1 1 1
11 11 11 11 10 10 10 10 10 9 9 9 9 8 8 8 7 7 7 6 6 5 5 4 4 3 3 2 2 2 2 2 2 1 1 1 1 1 0 0 0 0
Height
806 807 808 809 810 812 813 814 815 816 816 817 818 818 819 820 820 821 821 821 822 822 822 823 823 822 822 821 820 820 819 819 819 819 818 818 818 818 818 818 818 818
804 805 807 808 809 810 811 812 813 814 815 816 817 818 818 819 819 820 820 821 821 821 821 822 822 822 822 821 820 820 819 818 818 817 817 816 816 816 816 816 816 816
802 803 804 806 807 808 810 811 812 813 814 815 816 817 818 818 819 819 820 820 820 820 820 821 821 821 821 820 820 819 818 818 817 816 815 815 815 814 814 814 814 814
800 801 802 804 805 807 808 809 811 812 813 814 815 816 817 817 818 818 819 819 819 819 819 820 820 820 820 820 819 818 818 817 816 816 814 813 813 813 812 812 812 811
798 799 800 802 803 805 806 807 808 810 811 813 814 815 816 816 817 817 818 818 818 818 818 818 818 819 819 818 818 818 817 816 816 815 814 812 812 811 811 811 810 809
795 797 798 800 801 803 804 805 807 808 809 811 812 813 814 815 816 816 817 817 817 817 817 817 817 817 817 817 817 816 816 815 815 814 813 812 811 811 810 809 808 807
793 795 796 798 799 801 802 803 805 807 808 810 811 812 813 814 815 815 815 816 816 816 816 815 815 815 815 815 815 814 814 814 813 813 812 811 810 810 809 808 807 806
791 793 794 796 798 799 800 802 803 805 806 808 809 810 811 812 813 814 814 814 814 814 814 814 814 813 813 813 812 812 812 811 811 811 811 810 809 808 808 807 806 805
789 791 792 794 796 797 798 800 802 803 805 806 807 809 810 811 812 812 813 813 813 813 813 812 812 812 811 811 810 810 809 809 809 809 808 808 807 806 806 805 805 803
786 788 790 792 793 795 797 798 800 802 803 805 806 807 808 810 810 811 811 811 811 811 811 811 810 810 809 809 808 808 808 807 807 806 806 805 805 804 804 803 802 801
783 785 787 789 791 793 795 797 799 800 802 803 805 806 807 808 809 809 810 810 810 810 809 809 808 808 807 807 806 806 806 805 805 804 804 803 802 802 801 801 800 799
779 781 784 786 788 791 793 796 797 799 801 802 803 804 806 807 807 808 808 808 808 808 807 807 806 806 805 805 805 804 804 803 802 802 801 801 800 800 799 798 798 797
776 778 781 784 787 789 792 794 796 798 799 801 802 803 804 805 806 807 807 807 807 806 806 805 805 804 804 803 803 802 802 801 800 800 799 798 798 797 796 796 795 795
774 777 779 783 786 789 791 793 795 797 798 800 801 801 802 803 804 805 805 805 805 805 804 804 803 803 802 802 801 800 799 798 797 797 796 795 794 794 793 793 792 791
773 776 778 782 785 787 790 792 794 796 797 798 799 800 801 802 802 803 804 803 803 803 803 803 802 802 801 800 799 798 797 795 794 794 792 791 790 790 789 789 788 788
772 775 777 780 783 786 788 790 793 795 796 797 798 799 799 800 801 801 801 801 801 801 801 801 801 800 799 798 797 795 794 793 791 790 789 788 787 786 785 785 784 784
771 774 776 779 782 784 787 789 792 794 795 796 797 798 798 799 799 800 800 800 800 799 800 799 799 799 797 796 795 793 791 790 788 787 786 785 784 783 782 781 780 780
769 773 776 778 781 783 785 787 790 792 794 795 796 797 797 798 798 799 798 798 798 798 798 797 797 797 795 794 792 791 789 787 785 784 782 781 781 779 778 777 777 776
766 771 774 777 779 782 784 786 788 790 792 794 795 796 796 797 797 797 797 797 797 796 796 795 795 794 793 792 790 789 787 785 783 781 779 778 777 776 775 774 773 772
763 767 771 775 778 780 783 785 787 789 790 792 793 795 795 796 796 797 797 797 796 795 794 793 793 792 791 790 788 786 785 782 780 778 776 774 773 772 771 770 769 768
761 764 768 772 776 779 782 784 786 787 789 791 792 793 794 795 795 795 795 795 794 793 792 791 791 790 788 787 785 784 782 780 777 775 772 771 769 768 768 766 766 765
762 764 766 770 774 778 781 783 785 786 788 789 790 791 792 793 794 794 794 793 792 791 790 789 788 787 786 784 782 780 778 776 774 771 769 767 765 765 764 763 762 761
763 764 766 769 774 777 781 783 784 785 787 788 789 790 791 792 792 792 791 790 789 788 787 786 785 784 783 781 779 777 775 773 770 768 765 763 761 761 760 759 758 758
764 765 767 770 774 778 781 782 783 784 785 786 787 788 789 790 790 790 789 788 787 786 785 784 782 781 780 777 775 774 772 769 766 764 761 759 757 756 755 754 754 753
763 765 767 770 774 778 781 782 782 783 784 785 786 786 787 788 788 788 787 785 785 784 783 782 780 778 776 774 772 770 768 765 763 760 757 755 753 751 750 750 749 748
762 764 767 770 774 778 781 781 781 782 783 783 784 785 786 787 786 785 784 783 783 782 781 780 777 774 772 770 768 766 764 762 759 756 753 751 749 747 745 744 744 743
Wind_Speed
27 26 24 24 24 22 20 21 20 17 15 14 13 12 11 9 9 8 7 7 8 8 9 9 10 11 12 12 14 15 16 16 16 16 17 18 18 17 18 18 19 19
28 27 25 25 25 23 22 22 21 19 17 16 15 14 13 12 11 11 10 10 10 10 9 10 10 10 10 11 12 13 15 16 16 17 17 18 18 18 18 19 19 20
28 27 27 26 26 24 23 22 21 21 19 17 17 17 16 14 13 12 11 11 10 10 10 10 10 9 9 10 12 13 14 16 17 17 19 19 19 19 19 20 20 21
29 29 28 27 26 25 23 22 22 21 20 18 18 18 17 15 13 12 11 10 10 9 9 9 9 9 9 10 12 13 14 15 16 17 19 20 20 21 21 21 22 22
30 30 29 28 27 25 24 23 23 22 21 20 19 17 16 14 12 11 10 9 9 9 9 9 9 9 10 11 12 13 14 15 16 16 18 19 19 20 21 22 23 23
31 30 29 28 27 25 24 24 23 22 21 21 19 17 14 12 11 10 9 9 9 9 9 9 10 10 11 11 11 13 14 14 15 15 17 19 20 21 21 22 24 24
31 30 29 28 27 25 25 24 23 22 21 20 18 15 13 11 10 10 10 9 9 9 9 10 10 10 10 11 12 14 14 14 14 14 16 18 20 21 21 22 23 24
32 30 29 28 27 26 24 23 22 21 20 19 17 14 12 11 10 10 9 9 9 9 9 9 10 11 11 13 14 15 15 14 13 14 15 17 19 21 21 21 22 23
32 31 29 28 27 26 25 23 21 20 19 17 15 12 11 11 10 10 9 9 9 9 9 10 11 12 13 14 14 15 15 15 15 16 17 19 20 20 21 21 21 22
33 31 30 29 28 27 25 23 21 19 18 16 14 12 11 11 10 9 9 9 10 10 10 10 10 11 11 12 12 13 15 16 17 19 20 20 21 21 21 21 21 22
34 32 31 30 30 28 26 24 21 19 17 15 13 12 11 10 10 10 10 10 9 9 9 9 10 10 10 10 10 10 12 14 15 17 18 19 20 20 21 21 21 21
35 33 32 31 30 28 26 23 21 19 17 15 13 12 11 10 10 10 10 10 9 9 10 10 11 11 10 10 10 10 12 13 14 16 17 18 18 18 18 19 19 19
35 34 33 31 29 27 24 22 20 19 17 14 13 11 10 10 10 10 10 9 10 11 12 13 13 12 12 12 13 15 17 18 20 21 22 22 22 20 19 19 19 20
34 33 31 29 27 24 22 21 19 18 16 13 12 11 11 11 11 10 10 10 12 14 14 14 14 13 14 15 17 20 21 23 24 25 26 26 25 25 24 23 23 22
32 30 29 27 25 23 22 21 19 17 15 13 12 12 12 11 11 10 11 13 14 15 15 14 14 15 16 18 20 22 23 24 25 26 26 26 25 25 25 25 25 25
29 28 27 25 24 23 22 20 18 16 14 13 13 12 12 11 11 11 12 14 14 14 14 14 15 17 19 21 22 23 24 24 25 24 24 24 25 25 25 26 25 25
27 26 25 25 24 22 21 18 16 14 14 13 13 12 12 11 11 11 12 13 13 13 13 14 16 18 21 23 24 24 24 24 24 24 24 24 25 26 26 26 26 25
27 26 25 24 23 21 19 16 15 14 13 13 13 12 11 10 10 11 11 11 11 11 12 15 17 20 22 23 23 23 23 23 23 23 24 25 25 25 26 26 26 26
27 27 25 24 22 19 17 15 14 13 12 13 12 11 9 9 9 9 9 8 8 11 13 16 18 20 21 22 22 22 21 21 22 23 25 26 26 26 26 27 27 27
29 28 26 23 20 17 15 13 12 12 12 11 10 8 8 8 7 6 5 7 9 12 15 17 18 20 21 21 22 22 22 23 24 25 27 28 28 28 28 28 28 28
29 28 25 22 19 16 13 12 11 11 9 8 6 5 5 5 4 4 5 8 11 13 15 17 19 21 23 23 24 24 24 25 26 27 27 28 28 27 27 27 27 27
26 25 23 20 17 14 12 10 9 8 8 6 4 3 3 3 3 4 6 9 12 15 17 20 22 24 24 25 26 26 26 27 27 27 27 27 27 26 26 26 26 26
25 23 21 19 16 13 12 12 11 8 6 4 3 3 3 3 4 5 8 12 16 19 21 23 25 27 27 26 27 27 28 29 28 28 27 27 27 27 27 27 27 27
25 23 20 18 16 15 14 11 8 5 4 2 1 2 3 4 6 9 11 15 18 21 22 24 27 29 28 28 28 27 28 29 29 29 28 28 28 28 29 29 29 29
23 21 20 18 15 13 10 7 4 3 1 1 3 4 5 6 10 13 14 16 18 20 22 25 28 30 29 29 28 28 27 28 29 29 28 28 28 29 30 29 29 29
24 21 19 17 13 10 6 4 2 0 2 4 6 7 6 7 12 15 15 16 17 19 22 25 28 30 29 28 28 27 27 27 27 27 27 28 29 29 30 30 30 30
Wind_Direction
210 212 212 212 214 217 217 212 212 214 216 218 217 216 220 220 219 224 235 254 270 279 284 292 300 308 315 320 323 322 321 319 317 316 315 315 316 315 310 307 308 309
212 214 215 215 216 217 216 214 214 216 216 218 217 217 221 225 228 236 248 259 269 277 286 295 303 310 316 319 320 319 319 319 320 320 318 317 319 318 316 314 311 307
212 215 216 216 216 214 214 215 216 217 217 215 214 217 222 227 232 240 250 258 268 278 288 297 304 307 310 315 316 316 315 315 316 318 316 314 315 314 314 316 315 312
214 216 218 219 219 218 217 216 214 215 215 212 210 214 218 223 230 238 248 259 270 282 289 294 298 299 302 307 311 312 313 312 313 315 313 311 311 311 310 312 313 314
216 219 221 223 223 222 221 218 216 214 213 211 210 213 217 222 230 238 248 259 270 282 289 293 293 294 298 302 304 306 307 309 310 311 312 312 313 312 311 311 309 309
218 221 223 225 225 224 222 221 220 217 215 214 214 216 221 226 232 239 248 261 274 284 289 292 293 293 296 298 300 303 303 303 305 308 309 310 312 312 311 311 309 305
218 221 223 225 225 225 225 224 223 220 218 218 218 222 227 232 237 245 257 270 279 285 289 291 293 296 299 300 303 304 302 299 300 303 305 307 309 310 309 310 310 307
219 221 223 224 225 225 226 224 223 221 219 220 222 226 232 237 243 253 266 276 280 283 286 289 296 301 305 308 308 305 301 298 298 300 303 304 304 306 308 310 310 309
219 220 221 223 224 224 223 222 220 218 218 222 226 230 236 243 252 263 272 278 281 283 286 292 299 304 307 309 308 307 304 300 300 301 303 303 301 301 304 307 308 307
217 218 219 220 222 221 220 219 218 218 220 225 229 234 242 250 258 269 276 278 281 285 290 295 300 305 309 311 311 312 310 308 308 307 305 303 300 299 300 301 302 302
214 215 216 218 219 219 219 218 219 221 224 228 233 239 247 256 264 270 274 277 281 285 287 291 298 303 305 307 311 314 314 314 315 314 312 309 304 301 299 298 297 297
211 212 214 215 216 216 217 218 219 221 223 227 234 242 250 258 265 270 273 276 277 279 283 290 296 299 297 297 301 303 306 307 308 309 310 310 309 306 304 301 299 297
208 210 212 212 213 213 213 214 215 216 220 226 233 242 250 258 265 270 271 273 275 279 287 292 292 289 289 292 298 302 305 306 306 306 304 302 301 300 299 297 295 296
208 209 210 209 209 209 209 209 209 212 218 224 231 239 249 257 262 265 266 270 278 283 286 286 285 286 292 298 303 307 309 309 308 306 303 300 298 296 294 293 292 292
208 207 206 204 204 204 204 204 207 212 218 224 231 239 245 251 254 257 263 271 277 280 280 281 285 292 298 304 307 309 309 309 307 305 303 301 300 299 297 295 293 292
205 203 200 199 199 200 200 203 206 211 219 226 233 239 243 247 248 253 262 269 271 272 274 281 289 296 302 305 308 310 310 309 306 303 302 301 300 299 298 296 295 293
200 197 195 194 195 196 197 199 204 211 219 227 235 243 244 240 243 252 260 263 264 268 277 289 297 304 308 309 311 312 310 308 305 302 300 298 296 294 293 294 294 293
194 191 190 191 192 192 192 196 203 212 221 234 243 241 234 233 243 253 255 256 263 278 293 304 309 312 313 313 312 312 309 306 302 300 299 297 295 293 292 291 292 292
189 187 187 188 189 190 192 196 204 217 231 242 240 228 226 237 246 248 251 265 289 307 314 316 317 317 316 314 311 308 306 302 298 297 297 296 295 294 292 291 290 291
184 183 183 185 186 187 191 199 213 227 234 232 224 221 232 237 235 243 273 307 320 325 324 321 320 318 315 312 308 305 302 299 298 297 297 296 295 293 291 289 288 287
179 178 176 177 179 184 194 208 217 219 211 203 204 218 225 219 228 275 311 327 332 332 330 327 325 322 316 311 307 304 302 300 299 298 297 296 294 292 290 288 287 286
174 171 167 169 173 179 186 188 180 171 164 163 171 182 192 219 265 297 325 341 345 344 341 337 335 331 323 315 309 305 303 301 299 298 297 296 294 292 290 288 286 285
169 164 158 159 162 160 155 150 145 140 139 143 155 174 212 257 287 318 340 345 346 345 341 336 333 330 325 317 311 306 302 300 299 297 296 294 292 291 289 287 286 284
158 153 147 143 143 142 139 136 133 129 132 142 181 238 262 296 323 330 333 337 338 336 333 329 325 324 321 316 311 307 302 299 297 295 293 291 290 290 289 287 286 284
146 142 138 134 131 131 130 124 114 98 93 292 293 286 287 319 336 332 329 332 331 328 328 326 322 320 318 314 310 308 303 299 296 293 290 290 290 291 290 287 286 284
146 139 132 128 124 118 111 104 96 6 270 263 270 271 281 320 336 333 329 328 326 325 326 326 323 319 317 313 310 307 304 301 298 293 292 292 292 290 289 287 285 283